01:53
Airports
History
Links
Donate
Help keep this website running!
PayPal
Bitcoin
This page is community maintained. The information is intended for PC simulator navigation or reference.
Always use approved charts for navigation.
RJTF
Chofu
Chofu (RJTF)
Mitaka-shi, Tokyo, Japan (181)
(C)
Lat/Lng:35° 40' 17.58" N / 139° 31' 40.58" E
35.671551 / 139.527939
Elevation:135'ft / 41mMSL
ID / ICAO:RJTF
Runways:1
Longest:35-17
Asphalt 805m / 2,640ft
Controlled:Yes
METAR01:00 GMT 2017-11-24
Altimeter: 29.94
Visibility: 6.2 statute miles
Wind: 2 knots (from VRB°)
Temp: 11°c / 52°f
Humidity: %

METAR: RJTF 240100Z VRB02KT 9999 FEW030 11/M00 Q1014

(Powered by phpweather)
Nearby VORs <50NM
Nearby NDBs
Runway 35 / 17
Dimensions:804.7 x 29.9m 2640' x 98'ft
Surface:Asphalt
Runway 35 [A]Runway 17 [B]
Heading:342°TH 162°TH
Lat:
Lng:
35° 40' 5.23"N
139° 31' 45.38"E
35° 40' 29.94"N
139° 31' 35.78"E
User Notes and Comments
35° 40' 17.58" N / 139° 31' 40.58" E
Distance To
Airport ID:
Nearby Airports
(C) Tachikawa AB 7.5 NM
RJTC ( WX ) WNW 291°
(C) YOKOTA AB 11.4 NM
RJTY ( WX ) WNW 297°
(C) KASTNER AAF 13.3 NM
RJTR ( WX ) SW 214°
(C) IRUMA 13.5 NM
RJTJ ( WX ) NNW 330°
(C) ATSUGI NAF 15.6 NM
RJTA ( WX ) SSW 196°
(C) Tokyo Haneda Intl 17.2 NM
RJTT ( WX ) ESE 120°
(C) Honda Airport 21.1 NM
RJT1 N 359°
VFR Chart
Flight Planning at SkyVector.com